Tiempo cada hora Almáskamarás

Hoy, 27 Julio, Martes

Tiempo Temperatura Precipitaciones Viento Presión Humedad
00:00 +27°C° 0 mm 3 mps 753 mmHg 48%
01:00 +27°C° 0 mm 3 mps 753 mmHg 46%
02:00 +27°C° 0 mm 3 mps 753 mmHg 45%
03:00 +26°C° 0 mm 3 mps 753 mmHg 45%
04:00 +26°C° 0 mm 3 mps 753 mmHg 44%
05:00 +27°C° 0 mm 3 mps 753 mmHg 43%
06:00 +28°C° 0 mm 3 mps 753 mmHg 42%
07:00 +29°C° 0 mm 4 mps 753 mmHg 40%
08:00 +33°C° 0 mm 4 mps 753 mmHg 36%
09:00 +35°C° 0 mm 4 mps 753 mmHg 31%
10:00 +37°C° 0 mm 4 mps 753 mmHg 26%
11:00 +38°C° 0 mm 4 mps 753 mmHg 24%
12:00 +40°C° 0 mm 4 mps 753 mmHg 22%
13:00 +41°C° 0 mm 5 mps 752 mmHg 20%
14:00 +41°C° 0 mm 5 mps 752 mmHg 20%
15:00 +41°C° 0 mm 5 mps 752 mmHg 20%
16:00 +40°C° 0 mm 5 mps 752 mmHg 21%
17:00 +37°C° 0 mm 4 mps 752 mmHg 24%
18:00 +35°C° 0 mm 3 mps 752 mmHg 27%
19:00 +32°C° 0 mm 2 mps 752 mmHg 31%
20:00 +31°C° 0 mm 2 mps 752 mmHg 33%
21:00 +30°C° 0 mm 2 mps 752 mmHg 35%
22:00 +29°C° 0 mm 2 mps 752 mmHg 37%
23:00 +28°C° 0 mm 2 mps 752 mmHg 39%

Mañana, 28 Julio, Miércoles

Tiempo Temperatura Precipitaciones Viento Presión Humedad
00:00 +28°C° 0 mm 2 mps 752 mmHg 40%
01:00 +27°C° 0 mm 2 mps 752 mmHg 42%
02:00 +27°C° 0 mm 2 mps 752 mmHg 44%
03:00 +26°C° 0 mm 2 mps 752 mmHg 46%
04:00 +25°C° 0 mm 2 mps 752 mmHg 49%
05:00 +27°C° 0.1 mm 2 mps 752 mmHg 46%
06:00 +28°C° 0.1 mm 2 mps 752 mmHg 44%
07:00 +30°C° 0.1 mm 3 mps 752 mmHg 42%
08:00 +33°C° 0 mm 3 mps 752 mmHg 37%
09:00 +35°C° 0 mm 3 mps 752 mmHg 32%
10:00 +38°C° 0 mm 3 mps 752 mmHg 27%
11:00 +39°C° 0 mm 3 mps 751 mmHg 23%
12:00 +42°C° 0 mm 4 mps 751 mmHg 20%
13:00 +43°C° 0 mm 4 mps 750 mmHg 17%
14:00 +43°C° 0 mm 5 mps 750 mmHg 16%
15:00 +44°C° 0 mm 6 mps 750 mmHg 16%
16:00 +42°C° 0 mm 6 mps 749 mmHg 16%
17:00 +40°C° 0 mm 5 mps 749 mmHg 18%
18:00 +37°C° 0 mm 4 mps 749 mmHg 21%
19:00 +35°C° 0 mm 3 mps 749 mmHg 24%
20:00 +34°C° 0 mm 3 mps 750 mmHg 27%
21:00 +31°C° 0 mm 3 mps 750 mmHg 31%
22:00 +29°C° 0 mm 2 mps 750 mmHg 35%
23:00 +29°C° 0 mm 2 mps 750 mmHg 38%

Pasado mañana, 29 Julio, Jueves

Tiempo Temperatura Precipitaciones Viento Presión Humedad
00:00 +28°C° 0 mm 2 mps 750 mmHg 42%
01:00 +27°C° 0 mm 1 mps 750 mmHg 46%
02:00 +26°C° 0 mm 2 mps 750 mmHg 48%
03:00 +26°C° 0 mm 2 mps 751 mmHg 51%
04:00 +25°C° 0 mm 2 mps 751 mmHg 54%
05:00 +26°C° 0 mm 2 mps 751 mmHg 53%
06:00 +27°C° 0 mm 2 mps 751 mmHg 52%
07:00 +29°C° 0 mm 2 mps 752 mmHg 51%
08:00 +30°C° 0 mm 2 mps 752 mmHg 46%
09:00 +32°C° 0 mm 2 mps 752 mmHg 40%
10:00 +35°C° 0 mm 3 mps 752 mmHg 35%
11:00 +36°C° 0 mm 3 mps 752 mmHg 32%
12:00 +38°C° 0 mm 4 mps 751 mmHg 28%
13:00 +40°C° 0 mm 4 mps 751 mmHg 25%
14:00 +40°C° 0 mm 4 mps 750 mmHg 24%
15:00 +40°C° 0 mm 4 mps 750 mmHg 22%
16:00 +40°C° 0 mm 4 mps 750 mmHg 21%
17:00 +37°C° 0 mm 3 mps 749 mmHg 24%
18:00 +35°C° 0 mm 3 mps 749 mmHg 27%
19:00 +32°C° 0 mm 2 mps 749 mmHg 30%
20:00 +31°C° 0 mm 2 mps 749 mmHg 34%
21:00 +29°C° 0 mm 2 mps 750 mmHg 38%
22:00 +28°C° 0 mm 2 mps 750 mmHg 42%
23:00 +28°C° 0 mm 2 mps 750 mmHg 44%

30 Julio, Viernes

Tiempo Temperatura Precipitaciones Viento Presión Humedad
00:00 +27°C° 0 mm 2 mps 749 mmHg 46%
01:00 +27°C° 0 mm 2 mps 749 mmHg 48%
02:00 +26°C° 0 mm 2 mps 749 mmHg 48%
03:00 +26°C° 0 mm 2 mps 749 mmHg 48%
04:00 +26°C° 0 mm 2 mps 749 mmHg 49%
05:00 +27°C° 0 mm 2 mps 749 mmHg 45%
06:00 +29°C° 0 mm 2 mps 749 mmHg 41%
07:00 +31°C° 0 mm 2 mps 749 mmHg 38%
08:00 +34°C° 0 mm 3 mps 749 mmHg 33%
09:00 +36°C° 0 mm 3 mps 749 mmHg 29%
10:00 +39°C° 0 mm 3 mps 749 mmHg 24%
11:00 +40°C° 0 mm 3 mps 748 mmHg 21%
12:00 +42°C° 0 mm 4 mps 747 mmHg 19%
13:00 +43°C° 0 mm 4 mps 747 mmHg 16%
14:00 +43°C° 0 mm 4 mps 747 mmHg 16%
15:00 +43°C° 0 mm 5 mps 746 mmHg 16%
16:00 +43°C° 0 mm 5 mps 746 mmHg 15%
17:00 +41°C° 0 mm 5 mps 746 mmHg 19%
18:00 +37°C° 0 mm 4 mps 746 mmHg 23%
19:00 +35°C° 0 mm 3 mps 746 mmHg 26%
20:00 +33°C° 0 mm 3 mps 746 mmHg 31%
21:00 +31°C° 0 mm 3 mps 746 mmHg 36%
22:00 +29°C° 0 mm 3 mps 747 mmHg 41%
23:00 +28°C° 0 mm 2 mps 747 mmHg 44%

31 Julio, Sábado

Tiempo Temperatura Precipitaciones Viento Presión Humedad
00:00 +27°C° 0 mm 2 mps 747 mmHg 47%
01:00 +26°C° 0 mm 2 mps 747 mmHg 50%
02:00 +26°C° 0 mm 2 mps 747 mmHg 55%
03:00 +25°C° 0 mm 3 mps 747 mmHg 59%
04:00 +24°C° 0 mm 3 mps 748 mmHg 64%
05:00 +25°C° 0.1 mm 2 mps 748 mmHg 64%
06:00 +26°C° 0.1 mm 2 mps 748 mmHg 64%
07:00 +27°C° 0.1 mm 2 mps 749 mmHg 64%
08:00 +29°C° 0 mm 1 mps 748 mmHg 55%
09:00 +32°C° 0 mm 1 mps 748 mmHg 45%
10:00 +34°C° 0 mm 1 mps 748 mmHg 36%
11:00 +36°C° 0 mm 1 mps 748 mmHg 32%
12:00 +38°C° 0 mm 2 mps 747 mmHg 29%
13:00 +39°C° 0 mm 2 mps 747 mmHg 25%
14:00 +40°C° 0 mm 3 mps 747 mmHg 23%
15:00 +40°C° 0 mm 3 mps 746 mmHg 22%
16:00 +42°C° 0 mm 3 mps 746 mmHg 21%
17:00 +38°C° 0 mm 3 mps 746 mmHg 24%
18:00 +36°C° 0 mm 3 mps 746 mmHg 28%
19:00 +34°C° 0 mm 2 mps 746 mmHg 31%
20:00 +31°C° 0.5 mm 3 mps 746 mmHg 44%
21:00 +28°C° 0.5 mm 4 mps 747 mmHg 56%
22:00 +25°C° 0.5 mm 4 mps 747 mmHg 69%
23:00 +23°C° 0 mm 4 mps 747 mmHg 73%

1 Agosto, Domingo

Tiempo Temperatura Precipitaciones Viento Presión Humedad
00:00 +22°C° 0 mm 3 mps 747 mmHg 77%
01:00 +21°C° 0 mm 3 mps 747 mmHg 82%
02:00 +21°C° 0.2 mm 2 mps 747 mmHg 83%
03:00 +21°C° 0.2 mm 2 mps 748 mmHg 84%
04:00 +20°C° 0.2 mm 2 mps 748 mmHg 86%
05:00 +21°C° 0.2 mm 2 mps 748 mmHg 81%
06:00 +22°C° 0.2 mm 3 mps 748 mmHg 77%
07:00 +24°C° 0.2 mm 3 mps 748 mmHg 73%
08:00 +27°C° 0 mm 2 mps 748 mmHg 63%
09:00 +30°C° 0 mm 1 mps 748 mmHg 53%
10:00 +32°C° 0 mm 1 mps 748 mmHg 42%
11:00 +34°C° 0 mm 1 mps 748 mmHg 38%
12:00 +36°C° 0 mm 1 mps 747 mmHg 33%
13:00 +37°C° 0 mm 1 mps 747 mmHg 29%
14:00 +39°C° 0 mm 2 mps 746 mmHg 26%
15:00 +39°C° 0 mm 2 mps 745 mmHg 24%
16:00 +40°C° 0 mm 2 mps 744 mmHg 21%
17:00 +35°C° 0.6 mm 2 mps 745 mmHg 40%
18:00 +29°C° 0.6 mm 3 mps 745 mmHg 59%
19:00 +24°C° 0.6 mm 3 mps 746 mmHg 78%
20:00 +22°C° 0 mm 3 mps 746 mmHg 82%
21:00 +22°C° 0 mm 4 mps 746 mmHg 86%
22:00 +21°C° 0 mm 4 mps 746 mmHg 90%
23:00 +21°C° 0 mm 3 mps 746 mmHg 90%
Mostrar más

Necesitamos Su Consentimiento

Meteoprog y nuestros Proveedores de Servicios pueden almacenar y acceder a sus datos personales como cookies, identificadores de dispositivo u otras tecnologías similares de su dispositivo y procesar dichos datos para personalizar contenido y anuncios, además de ofrecer funciones de redes sociales y analizar el tráfico.

  • Almacenar y/o acceder a información en su dispositivo

    Se puede almacenar o acceder a cookies, identificadores de dispositivo u otra información de su dispositivo para los fines anteriormente indicados.

  • Anuncios y contenido personalizados, medición de anuncios y contenido, percepciones del público, y desarrollo de productos

    Los anuncios y el contenido pueden personalizarse en base a su perfil. Se pueden añadir más datos para personalizar mejor los anuncios y contenidos. Se puede medir el rendimiento de los anuncios y contenidos. Se puede obtener la percepción sobre el público que ha visto los anuncios y contenidos. Dichos datos pueden usarse para desarrollar o mejorar la experiencia del usuario, sistemas y software.

Al hacer clic en ‘Estoy De Acuerdo’ usted permitirá el uso de las cookies, identificadores de dispositivo, balizas web u otras tecnologías similares indicadas. Su configuración puede cambiarse desde el navegador de su dispositivo.

Para ciertos fines, los intereses legítimos pueden ser considerados por encima del consentimiento. Puede leer más sobre ello en nuestra Política de Privacidad y Cookies.